[[{"header":{"parameterUnit":"m.s-1","parameterCategory":1,"la1":30.2991,"la2":30.254,"lo1":-89.0895,"lo2":-89.0444,"dy":0.0017,"dx":0.0017,"nx":28,"ny":28,"refTime":"2026-01-09T09:00:00:Z","depth":0,"parameterNumber":2,"parameterNumberName":"U-component_of_WINDS"},"data":[0,0,0,0,0,0,0,0,0,0,0,0,0,0,0,0,0,0,0,0,0,0,0,0,0,0,0,0,0,0,0,0,0,0,0,0,0,0,0,0,0,0,0,0,0,0,0,0,0,0,0,0,0,0,0,0,0,0,-0.2619,-0.2619,0,-0.2637,-0.2638,-0.2638,-0.2644,-0.2644,-0.2644,-0.2644,-0.2665,-0.2665,-0.2666,0,0,0,0,0,0,0,0,0,0,0,0,0,-0.259,-0.259,-0.2619,-0.2619,-0.2619,-0.2637,-0.2638,-0.2638,-0.2644,-0.2644,-0.2644,-0.2644,-0.2665,-0.2665,-0.2666,0,0,0,0,0,0,0,0,0,0,0,0,0,-0.2605,-0.259,-0.2618,-0.2624,-0.2625,-0.2637,-0.2638,-0.2638,-0.2644,-0.2644,-0.2644,-0.2644,-0.2664,-0.2665,-0.2666,-0.2674,0,0,-0.2669,-0.2669,0,0,0,0,0,0,0,0,-0.2604,-0.2606,-0.2623,-0.2624,-0.2625,-0.2638,-0.2635,-0.265,-0.2644,-0.2637,-0.2644,-0.2644,-0.2656,-0.2658,-0.2662,-0.2675,-0.2676,-0.2669,-0.267,-0.267,-0.267,0,0,0,0,0,0,0,-0.2603,-0.2605,-0.2626,-0.2623,-0.2624,-0.2627,-0.2629,-0.2638,-0.2647,-0.2638,-0.2638,-0.264,-0.2657,-0.2661,-0.2662,-0.2677,-0.2669,-0.267,-0.2671,-0.2671,-0.2699,-0.2699,0,0,0,0,0,0,-0.2601,-0.2604,-0.2625,-0.2627,-0.2614,-0.2627,-0.2629,-0.2634,-0.2647,-0.2649,-0.264,-0.264,-0.2659,-0.2661,-0.2663,-0.2673,-0.267,-0.2671,-0.2672,-0.2698,-0.2699,-0.2699,0,0,0,0,0,0,-0.26,-0.2602,-0.2625,-0.2616,-0.2619,-0.2628,-0.2633,-0.2635,-0.2639,-0.2649,-0.2651,-0.2643,-0.2659,-0.2662,-0.2671,-0.2674,-0.2671,-0.2672,-0.2698,-0.2698,-0.2699,-0.2695,0,0,0,0,0,0,-0.2599,-0.2602,-0.2605,-0.2616,-0.2619,-0.2632,-0.2633,-0.2635,-0.264,-0.264,-0.2652,-0.2653,-0.2659,-0.267,-0.2672,-0.2676,-0.2673,-0.2698,-0.2698,-0.2699,-0.2695,-0.2695,-0.2695,0,0,0,0,0,-0.2598,-0.2603,-0.2605,-0.2608,-0.2623,-0.2632,-0.2634,-0.2641,-0.264,-0.2643,-0.265,-0.2653,-0.2674,-0.2671,-0.2674,-0.2677,-0.2698,-0.2698,-0.2699,-0.2694,-0.2695,-0.2695,0,0,0,0,0,0,-0.2593,-0.2605,-0.2607,-0.2616,-0.2623,-0.2633,-0.2638,-0.2641,-0.2649,-0.2649,-0.2656,-0.2659,-0.2668,-0.2674,-0.2671,-0.2686,-0.2686,-0.2687,-0.2682,-0.2682,-0.2682,-0.2681,-0.2674,0,0,0,0,0,-0.2593,-0.26,-0.261,-0.2616,-0.262,-0.2628,-0.2633,-0.2637,-0.2645,-0.2648,-0.2656,-0.2664,-0.2672,-0.2678,-0.2686,-0.2696,-0.2698,-0.2699,-0.27,-0.27,-0.27,-0.2706,-0.2707,-0.27,-0.27,-0.27,0,0,-0.2593,-0.26,-0.2604,-0.2616,-0.2622,-0.2629,-0.2631,-0.2638,-0.2644,-0.265,-0.2659,-0.2665,-0.2675,-0.2685,-0.2689,-0.269,-0.2703,-0.27,-0.27,-0.2701,-0.2707,-0.2707,-0.2708,-0.27,-0.27,-0.27,0,0,-0.2596,-0.2602,-0.2609,-0.2615,-0.2624,-0.263,-0.2631,-0.2641,-0.2645,-0.2655,-0.266,-0.2667,-0.2681,-0.2688,-0.2693,-0.27,-0.2703,-0.2702,-0.2703,-0.2709,-0.2709,-0.271,-0.2712,-0.2713,-0.2703,-0.2703,-0.2703,0,-0.2595,-0.2606,-0.2612,-0.2619,-0.2624,-0.2629,-0.2636,-0.2642,-0.2654,-0.2657,-0.2658,-0.2676,-0.2683,-0.2694,-0.2696,-0.27,-0.2702,-0.2701,-0.2708,-0.2709,-0.271,-0.2712,-0.2713,-0.2703,-0.2703,-0.2703,-0.2703,0,-0.2604,-0.2611,-0.2615,-0.2626,-0.2631,-0.2638,-0.2646,-0.2651,-0.2655,-0.2661,-0.2671,-0.268,-0.269,-0.2693,-0.2697,-0.2705,-0.2705,-0.2707,-0.2707,-0.271,-0.2712,-0.2713,-0.2703,-0.2703,-0.2703,-0.2703,0,0,-0.2604,-0.2618,-0.262,-0.2625,-0.2635,-0.2641,-0.2649,-0.2658,-0.2663,-0.2671,-0.2678,-0.269,-0.2691,-0.2698,-0.2702,-0.2707,-0.2712,-0.2708,-0.2709,-0.2709,-0.2722,-0.2721,-0.2722,-0.2714,-0.2715,-0.2715,-0.2721,0,-0.2609,-0.2622,-0.2628,-0.2638,-0.2645,-0.2651,-0.2657,-0.2665,-0.2671,-0.2678,-0.2685,-0.2693,-0.2694,-0.2698,-0.2703,-0.271,-0.2715,-0.271,-0.2721,-0.2721,-0.2718,-0.2723,-0.2721,-0.2727,-0.2722,-0.2723,-0.2723,0,-0.2616,-0.2624,-0.2634,-0.2645,-0.2648,-0.2654,-0.2663,-0.267,-0.2679,-0.2683,-0.269,-0.2694,-0.2703,-0.2703,-0.2715,-0.2712,-0.2717,-0.2721,-0.2722,-0.2723,-0.2722,-0.2724,-0.2729,-0.273,-0.2724,-0.2724,-0.2724,0,-0.2615,-0.2628,-0.2636,-0.2641,-0.2653,-0.2657,-0.2662,-0.2671,-0.2676,-0.2685,-0.2689,-0.2698,-0.2704,-0.2711,-0.2719,-0.2718,-0.2731,-0.2731,-0.2734,-0.2734,-0.2736,-0.2736,-0.2742,-0.274,-0.274,-0.274,-0.274,0,-0.262,-0.2626,-0.2636,-0.2641,-0.2649,-0.2656,-0.2664,-0.267,-0.2678,-0.2684,-0.269,-0.2697,-0.2706,-0.2714,-0.272,-0.2729,-0.2732,-0.2736,-0.2737,-0.2735,-0.2734,-0.2738,-0.2738,-0.274,-0.274,-0.274,-0.274,0,-0.262,-0.2627,-0.2636,-0.2647,-0.265,-0.2655,-0.2664,-0.267,-0.2676,-0.2684,-0.2687,-0.2697,-0.2706,-0.2714,-0.2727,-0.2731,-0.2741,-0.2743,-0.2738,-0.2738,-0.2741,-0.2741,-0.275,-0.2751,-0.2748,-0.2748,-0.2748,0,-0.2622,-0.2627,-0.2638,-0.2643,-0.2648,-0.2655,-0.2661,-0.2669,-0.2674,-0.2685,-0.2689,-0.2699,-0.2707,-0.2723,-0.2731,-0.2741,-0.2743,-0.2746,-0.2745,-0.2743,-0.2743,-0.2743,-0.2743,-0.2746,-0.2746,-0.2746,-0.2746,0,-0.2625,-0.2628,-0.2636,-0.2644,-0.2651,-0.2658,-0.2666,-0.2669,-0.2679,-0.2685,-0.2694,-0.2701,-0.2714,-0.2723,-0.2734,-0.2741,-0.2745,-0.2746,-0.2747,-0.2745,-0.2742,-0.2743,-0.2738,-0.2746,-0.2746,-0.2746,-0.2746,-0.2746,-0.2626,-0.2631,-0.264,-0.2648,-0.2654,-0.2661,-0.2667,-0.2674,-0.2682,-0.2692,-0.2697,-0.2706,-0.2716,-0.2731,-0.2737,-0.2746,-0.2746,-0.2748,-0.2749,-0.2749,-0.2748,-0.274,-0.2748,-0.2748,-0.2748,-0.2748,-0.2748,0,-0.263,-0.2636,-0.2643,-0.2653,-0.266,-0.2663,-0.2672,-0.2677,-0.2685,-0.2694,-0.2702,-0.2713,-0.2722,-0.2732,-0.2742,-0.2747,-0.2749,-0.275,-0.2749,-0.2751,-0.2747,-0.2745,-0.2748,-0.2748,-0.2748,-0.2748,-0.2748,-0.2748,-0.2632,-0.264,-0.2645,-0.2657,-0.2663,-0.2672,-0.2677,-0.2683,-0.269,-0.2702,-0.271,-0.2716,-0.2725,-0.2736,-0.2745,-0.2748,-0.2751,-0.2751,-0.2754,-0.2751,-0.2751,-0.2751,-0.2749,-0.2752,-0.2752,-0.2757,-0.2757,-0.2757]},{"header":{"parameterUnit":"m.s-1","parameterCategory":1,"la1":30.2991,"la2":30.254,"lo1":-89.0895,"lo2":-89.0444,"dy":0.0017,"dx":0.0017,"nx":28,"ny":28,"refTime":"2026-01-09T09:00:00:Z","depth":0,"parameterNumber":3,"parameterNumberName":"V-component_of_WINDS"},"data":[0,0,0,0,0,0,0,0,0,0,0,0,0,0,0,0,0,0,0,0,0,0,0,0,0,0,0,0,0,0,0,0,0,0,0,0,0,0,0,0,0,0,0,0,0,0,0,0,0,0,0,0,0,0,0,0,0,0,3.7407,3.7408,0,3.7508,3.7509,3.751,3.7523,3.7522,3.7521,3.752,3.7627,3.7631,3.7635,0,0,0,0,0,0,0,0,0,0,0,0,0,3.7228,3.7231,3.7406,3.7408,3.7409,3.7508,3.7509,3.751,3.7523,3.7522,3.7521,3.752,3.7626,3.763,3.7635,0,0,0,0,0,0,0,0,0,0,0,0,0,3.7315,3.7232,3.7406,3.7427,3.743,3.7507,3.7509,3.7511,3.7523,3.7522,3.752,3.7519,3.7625,3.763,3.7636,3.77,0,0,3.7653,3.7655,0,0,0,0,0,0,0,0,3.731,3.7322,3.7423,3.7426,3.7429,3.7501,3.7485,3.7574,3.7524,3.7488,3.752,3.7518,3.7587,3.7595,3.7618,3.7705,3.771,3.7653,3.7657,3.7659,3.7661,0,0,0,0,0,0,0,3.7304,3.7318,3.7447,3.7424,3.7428,3.7433,3.7444,3.7502,3.7545,3.7491,3.7492,3.7504,3.7588,3.7612,3.762,3.7711,3.7653,3.7658,3.7662,3.7664,3.7859,3.7861,0,0,0,0,0,0,3.7294,3.7312,3.7443,3.745,3.7365,3.7437,3.7449,3.748,3.7544,3.7552,3.7505,3.7504,3.7603,3.7614,3.7624,3.7706,3.7659,3.7665,3.7668,3.7858,3.786,3.7862,0,0,0,0,0,0,3.729,3.7305,3.7439,3.7381,3.7399,3.7442,3.7476,3.7482,3.7506,3.7554,3.7562,3.7522,3.7603,3.7616,3.7682,3.771,3.7667,3.7672,3.7856,3.7858,3.7861,3.7869,0,0,0,0,0,0,3.7285,3.7304,3.7328,3.7382,3.7402,3.7494,3.7478,3.7485,3.7516,3.7515,3.7572,3.758,3.7602,3.7673,3.7687,3.7717,3.7677,3.7853,3.7857,3.786,3.7867,3.7872,3.7876,0,0,0,0,0,3.7278,3.7326,3.7329,3.7345,3.7432,3.7495,3.7507,3.7531,3.7518,3.7543,3.7574,3.7578,3.7704,3.768,3.7696,3.7728,3.7852,3.7856,3.786,3.7864,3.7871,3.7876,0,0,0,0,0,0,3.7276,3.7334,3.7337,3.7404,3.7445,3.7497,3.753,3.7536,3.7582,3.758,3.7609,3.7621,3.7686,3.7713,3.7685,3.7795,3.7777,3.7784,3.7775,3.7781,3.7786,3.778,3.7681,0,0,0,0,0,3.7283,3.7328,3.7376,3.7431,3.7451,3.7487,3.7515,3.753,3.7573,3.7591,3.7627,3.767,3.7719,3.7751,3.7799,3.787,3.7884,3.79,3.7905,3.7908,3.7915,3.7957,3.7966,3.7875,3.7875,3.7875,0,0,3.7298,3.7335,3.7362,3.7431,3.7464,3.7512,3.7501,3.7551,3.7588,3.7599,3.7663,3.7691,3.7741,3.781,3.7842,3.7834,3.7943,3.7914,3.7916,3.7921,3.7962,3.7971,3.7979,3.7878,3.7877,3.7877,0,0,3.7351,3.7382,3.7432,3.7465,3.7515,3.7539,3.7551,3.7603,3.7622,3.7686,3.7696,3.774,3.7824,3.786,3.789,3.7957,3.7964,3.7972,3.7998,3.8039,3.8046,3.8052,3.8079,3.8088,3.7978,3.7978,3.7978,0,3.7364,3.7435,3.7457,3.7508,3.7539,3.755,3.7602,3.7633,3.7697,3.7719,3.7709,3.7816,3.785,3.7929,3.7945,3.7967,3.7984,3.7966,3.8043,3.8049,3.8056,3.8082,3.8091,3.7979,3.7979,3.7979,3.7978,0,3.745,3.7499,3.7534,3.7594,3.7629,3.768,3.7711,3.7744,3.7755,3.7781,3.7848,3.7889,3.7947,3.7966,3.7978,3.8047,3.8041,3.8036,3.802,3.8065,3.809,3.81,3.798,3.798,3.7979,3.7979,0,0,3.7506,3.7578,3.759,3.7619,3.7675,3.7714,3.7766,3.7821,3.785,3.7893,3.794,3.801,3.8007,3.804,3.8056,3.8091,3.8146,3.8083,3.8085,3.8096,3.8228,3.8233,3.8244,3.8149,3.8151,3.8152,3.8224,0,3.7567,3.7659,3.7681,3.7761,3.7808,3.7819,3.7865,3.7905,3.793,3.7975,3.8003,3.8054,3.8044,3.8064,3.8099,3.8131,3.8173,3.8126,3.8195,3.8197,3.8185,3.8256,3.8262,3.8328,3.8234,3.8236,3.8237,0,3.7651,3.7696,3.7781,3.7832,3.7853,3.7893,3.7947,3.7988,3.8035,3.8051,3.8088,3.8101,3.8158,3.8136,3.8216,3.8184,3.8213,3.8233,3.8236,3.8246,3.8222,3.8271,3.8349,3.836,3.8252,3.8251,3.8249,0,3.7687,3.7768,3.783,3.7853,3.7914,3.7943,3.797,3.8015,3.8047,3.8094,3.8116,3.8169,3.8199,3.8241,3.8268,3.8249,3.8347,3.8327,3.8364,3.8364,3.8387,3.8385,3.8474,3.8401,3.84,3.84,3.84,0,3.7755,3.7807,3.7847,3.7885,3.7944,3.7969,3.8027,3.8054,3.8094,3.8139,3.8152,3.8194,3.8226,3.8274,3.8296,3.8361,3.8373,3.839,3.8395,3.839,3.8389,3.8412,3.8409,3.8403,3.8402,3.8402,3.8401,0,3.7806,3.7834,3.7902,3.7954,3.7968,3.801,3.8055,3.8094,3.8118,3.8175,3.819,3.823,3.8287,3.8318,3.8389,3.8404,3.8477,3.8479,3.8461,3.8464,3.8501,3.8498,3.861,3.8627,3.8539,3.854,3.8541,0,3.7849,3.7889,3.7945,3.7975,3.8002,3.8051,3.8085,3.811,3.8145,3.8202,3.8234,3.8291,3.8338,3.8428,3.8465,3.852,3.8525,3.856,3.8534,3.8528,3.8529,3.8528,3.8533,3.8566,3.8567,3.8567,3.8568,0,3.7923,3.7935,3.7982,3.8034,3.8073,3.8115,3.8157,3.8182,3.8215,3.8254,3.8311,3.8348,3.842,3.8478,3.8536,3.8565,3.8574,3.8575,3.8588,3.8584,3.8574,3.8583,3.8477,3.8574,3.8573,3.8573,3.8572,3.8572,3.7973,3.801,3.8056,3.8108,3.8142,3.8181,3.8221,3.825,3.8298,3.8359,3.8371,3.8433,3.848,3.8559,3.859,3.864,3.8633,3.865,3.8655,3.8659,3.8663,3.8563,3.865,3.865,3.865,3.865,3.865,0,3.8051,3.808,3.8128,3.8186,3.8228,3.8229,3.8276,3.8312,3.8365,3.8408,3.8454,3.8521,3.8577,3.8618,3.8676,3.8708,3.8713,3.8723,3.8722,3.873,3.8663,3.8649,3.8718,3.8718,3.8717,3.8717,3.8717,3.8717,3.8096,3.816,3.8177,3.8259,3.8288,3.8348,3.8375,3.8412,3.8447,3.8521,3.8567,3.8592,3.8636,3.8696,3.8749,3.8759,3.8782,3.8791,3.8803,3.8741,3.8734,3.8727,3.8713,3.8795,3.8795,3.8865,3.8866,3.8866]}]]